sat.trackr.live / text

‹ back to catalog

STARLINK-33983

NORAD 63948 · 2025-098Y

PAYLOAD ACTIVE UNKNOWN

§ Identity

Operator
Country
US
Launch date
2025-05-13
Launch site
AFWTR
Launch vehicle
Mass (kg)
RCS (m²)

Purposes: comms

External: N2YO · Heavens-Above · Gunter

§ Orbital elements

Epoch: 2026-05-25T03:11:48.624288Z

Period
96.11 min
Inclination
70.0005°
Eccentricity
0.0002755
Mean motion
14.98348902 rev/d
Perigee alt
570.1 km
Apogee alt
573.9 km
Semi-major
6,950.1 km
B*
4.7273e-4
RAAN
81.6853°
Arg perigee
270.0405°
Mean anomaly
90.0439°
Rev number
5,800

§ Raw data

STARLINK-339831 63948U 25098Y   26145.13320167  .00005555  00000+0  47273-3 0  99902 63948  70.0005  81.6853 0002755 270.0405  90.0439 14.98348902 58008

JSON: /api/v1/satellites/63948 · /tle

For live sub-satellite position, see the globe view (requires WebGL).

§ Visibility from observer

Set your observer location to see the next 7 days of passes ≥ 10°. The values pass through the URL so the page stays shareable.

No JS? Fill the form by hand. The geolocation button needs JavaScript.